Regional Weather Roundup
Issued by NWS

Home | Current Version | Previous Version | Graphics & Text | Print | Product List | Glossary On
Versions: 1 2 3 4 5 6 7 8 9 10 11 12 13 14 15 16 17 18 19 20 21 22 23 24 25 26 27 28 29 30 31 32 33 34 35 36 37 38 39 40 41 42 43 44 45 46 47 48 49 50
247
ASUS45 KSLC 182210
RWRUT

UTAH REGIONAL WEATHER ROUNDUP
NATIONAL WEATHER SERVICE SALT LAKE CITY UT
400 PM MDT MON SEP 18 2017

UTZ001>011-023>025-182300-

NORTHERN UTAH

CITY           SKY/WX    TMP DP  RH WIND       PRES   REMARKS
BRIGHAM CITY   SUNNY     82  26  13 S23       29.78F
DUGWAY         MOSUNNY   83  28  13 S15G30    29.79F
HILL AFB       MOSUNNY   80  32  17 SW18G31   29.81F
LOGAN          PTSUNNY  N/A N/A N/A SW13G30   29.78F
OGDEN          MOSUNNY   82  33  17 S21G31    29.79F
SALT LAKE CITY PTSUNNY   84  33  16 S24G33    29.78F
TOOELE VALLEY  MOSUNNY   81  37  21 S23G30    29.80F
WENDOVER       PTSUNNY   82  33  17 S17       29.73F
HEBER CITY     MOSUNNY   75  32  20 SW13G22   29.90F
WEST JORDAN    MOSUNNY   81  48  32 S30G36    29.83F

$$

UTZ011>015-024>027-182300-

CENTRAL/NORTHEAST UTAH

CITY           SKY/WX    TMP DP  RH WIND       PRES   REMARKS
PROVO AIRPORT  MOSUNNY   78  42  27 SW15      29.87F
MOAB/CANYONLAN SUNNY     83  31  15 SW14G24   29.89F
DELTA          SUNNY     79  30  17 S18G30    29.89F
PRICE          MOSUNNY   73  31  21 S17G25    29.97F
ROOSEVELT      SUNNY     79  34  19 S3        29.94F
VERNAL         SUNNY     77  36  22 VRB7      29.93F

$$

UTZ013>016-019>022-027-182300-

SOUTHERN UTAH

CITY           SKY/WX    TMP DP  RH WIND       PRES   REMARKS
BRYCE CANYON   SUNNY     68  24  19 SW20G28   30.14F
CEDAR CITY     SUNNY     76  33  21 SW23G37   30.00F
MILFORD        SUNNY     79  32  18 SW24G32   29.94F
ST GEORGE      PTCLDY    89  34  14 SW15G28   29.86F
HANKSVILLE     SUNNY     82  30  15 SW15G24   29.92F
BLANDING         N/A     77  25  14 SW14G20   30.13F

$$

REGIONAL REPORTS     COLORADO/ARIZONA

CITY           SKY/WX    TMP DP  RH WIND       PRES   REMARKS
CRAIG, CO      MOSUNNY   77  26  15 SW17G29   29.98F
GRAND JUNCTION MOSUNNY   81  38  21 W9        29.92F
RIFLE, CO      MOSUNNY   78  32  18 W13       29.96F
MONTROSE, CO   SUNNY     79  30  16 W13       30.01F
CORTEZ, CO     SUNNY     77  21  12 SW13      30.08F
PAGE, AZ       SUNNY     85  28  12 N9        29.93F
GRAND CANYON   SUNNY     74  23  15 SW18G31   30.15F
KINGMAN, AZ    SUNNY     85  34  16 SW21G30   29.97F
FLAGSTAFF, AZ  SUNNY     70  17  13 SW26G35   30.19F

$$

REGIONAL REPORTS    NEVADA/IDAHO/WYOMING

CITY           SKY/WX    TMP DP  RH WIND       PRES   REMARKS
LAS VEGAS, NV  MOSUNNY   93  36  13 S10G21    29.80F
ELY, NY        SUNNY     75  32  20 S26G35    29.93F
ELKO, NV       CLOUDY    74  19  12 W25G38    29.82S
POCATELLO, ID  CLOUDY    72  32  23 SW17G28   29.77F
BURLEY, ID     CLOUDY    66  36  32 NW15      29.78R
FORT BRIDGER,    N/A     73  25  16 W21G30    29.98F
EVANSTON, WY   CLOUDY    70  31  23 SW29G36   29.96F
ROCK SPRINGS,  CLOUDY    68  25  19 SW10      29.95F
KEMMERER, WY     N/A     68  27  21 SW29G35   29.96F

$$




USA.gov is the U.S. government's official web portal to all federal, state and local government web resources and services.